DELTA 1 DEB, 21373

Orbit data source: Space-Track

DELTA 1 DEB, 21373 is space debris in SSO originally from a launch on Thu, 12 Jun 1975 UTC launched from the Air Force Western Test Range (AFWTR). Debris objects in space refer to the collection of defunct objects orbiting the Earth. Examples of debris include non-operational satellites, rocket bodies, and fragments generated from explosions, collisions, or faulty payload assembly.

Loading next visibility...
Identifier
21373, 1975-052CT
Orbit
SSO
Country
Flag of USUS
Related business
Manufacturer
Unknown
Mission
Spacecraft
Bus & Motor
Unknown
Mass
Unknown
Launch date (UTC)
1975-06-12 (51 years ago)
Launch vehicle
Unknown
Launch site
Air Force Western Test Range (AFWTR)
Object type
Payload
Rocket body
Debris
Shape & HBR
Unknown shape, 0.1 m
Radar Cross Section
Small (<0.1 m²)

Expand to show TLE details & history
Last TLE update: 21 hours ago

TLE from 21 hours ago
0 DELTA 1 DEB
1 21373U 75052CT  25350.45132162  .00000102  00000-0  29206-3 0  9999
2 21373  99.9544 245.9913 0075149 101.9002  75.1096 13.32640650679976
Epoch: 2025-12-16T10:49Z
TLE epoch observation values (Epoch: 2025-12-16T10:49:54.187Z)
Latitude
2.0247°
Longitude
178.53386°
Altitude
1,125.215 km
Speed
7.297 km/s
True Right ascension
04h 25m 22s
True Declination
2° 00' 47"
Sunlit
Object was in full shadow at epoch
Visualization orbit readout
Latitude
Unknown
Longitude
Unknown
Altitude
Unknown
Speed
Unknown
Apparent Right ascension
Unknown
Apparent Declination
Unknown
Sunlit
N/A
Visualization observer readout
Local Sidereal Time
06:19:10
Azimuth
Unknown
Elevation
Unknown
Doppler factor
Unknown
Orbital elements
Apogee altitude
1,190.611 km
Perigee altitude
1,077.703 km
Semi-major axis
7,512.294 km
Eccentricity
0.00751
Inclination
99.9544°
RAAN
245.9913°
Arg. of periapsis
101.9002°
True anomaly
75.94381°
Mean anomaly
75.1096°
Eccentric anomaly
75.52651°
Mean motion
3.33338 °/min
Orbital period
108 mins
BSTAR
0.00029206
Loading maneuver chart data...
Computing Atmospheric mass density...

Documentation

Showing up to 5 results
|